Weather History for Houston Hull, TX

Change the Weather History Date:

Tuesday, April 2, 2013

  Actual Average Record
Temperature  
Mean Temperature 66 °F -  
Max Temperature 72 °F 78 °F 89 °F (1974)
Min Temperature 63 °F 55 °F 39 °F (1970)
Cooling Degree Days 2    
Growing Degree Days 16 (Base 50)    
Moisture  
Dew Point 63 °F    
Average Humidity 91    
Maximum Humidity 94    
Minimum Humidity 84    
Precipitation  
Precipitation 1.37 in - - ()
Sea Level Pressure  
Sea Level Pressure 29.92 in    
Wind  
Wind Speed 9 mph (NE)    
Max Wind Speed 23 mph    
Max Gust Speed 38 mph    
Visibility 7 miles    
Events Fog , Rain , Thunderstorm    
Averages and records for this station are not official NWS values.
T = Trace of Precipitation, MM = Missing Value Source: NWS Daily Summary

Daily Weather History Graph

Daily Weather History Graph

Search for Another Location

Airport:

Trip Planner

Search our weather history database for the weather conditions in past years. The results will help you decide how hot, cold, wet, or windy it might be!

Date:

Astronomy

Apr. 02, 2013 Rise Set
Actual Time 7:10 AM CDT 7:41 PM CDT
Civil Twilight 6:46 AM CDT 8:05 PM CDT
Nautical Twilight 6:18 AM CDT 8:34 PM CDT
Astronomical Twilight 5:49 AM CDT 9:02 PM CDT
Moon 1:29 AM CDT (4/2) 12:20 PM CDT (4/2)
Length of Visible Light 13h 19m
Length of Day
12h 31m
Waning Gibbous, 55% of the Moon is Illuminated
Apr 2
Waning Gibbous
Apr 2
Last Quarter
Apr 10
New
Apr 18
First Quarter
Apr 25
Full

Hourly Weather History & Observations

Time (CDT) Temp. Dew Point Humidity Pressure Visibility Wind Dir Wind Speed Gust Speed Precip Events Conditions
12:53 AM 64.9 °F 62.1 °F 90% 30.03 in 10.0 mi SE 3.5 mph - N/A   Clear
1:53 AM 63.0 °F 61.0 °F 93% 30.03 in 10.0 mi Calm Calm - N/A   Clear
2:53 AM 64.0 °F 61.0 °F 90% 30.01 in 9.0 mi Calm Calm - N/A   Clear
3:53 AM 64.9 °F 62.1 °F 90% 29.99 in 9.0 mi SE 6.9 mph - N/A   Clear
4:53 AM 64.9 °F 63.0 °F 93% 29.97 in 9.0 mi East 5.8 mph - N/A   Clear
3:20 PM 69.8 °F 66.2 °F 88% 29.94 in 3.0 mi East 6.9 mph - 0.00 in Rain Light Rain
3:53 PM 69.1 °F 66.0 °F 90% 29.94 in 5.0 mi East 9.2 mph - 0.00 in Rain Light Rain
5:53 PM 70.0 °F 64.9 °F 84% 29.90 in 10.0 mi East 12.7 mph - N/A   Overcast
6:53 PM 69.1 °F 64.0 °F 84% 29.88 in 9.0 mi East 10.4 mph 18.4 mph 0.00 in   Overcast
7:53 PM 69.1 °F 64.0 °F 84% 29.86 in 10.0 mi East 12.7 mph 27.6 mph N/A   Overcast
8:37 PM 68.0 °F 64.4 °F 88% 29.85 in 8.0 mi East 12.7 mph 19.6 mph 0.00 in   Overcast
8:53 PM 68.0 °F 64.9 °F 90% 29.88 in 7.0 mi East 10.4 mph 18.4 mph 0.00 in Rain Light Rain
9:53 PM 68.0 °F 66.0 °F 93% 29.88 in 5.0 mi ENE 6.9 mph 23.0 mph 0.01 in Rain Light Rain
10:04 PM 66.2 °F 64.4 °F 94% 29.91 in 1.8 mi WNW 23.0 mph 38.0 mph 0.25 in Rain , Thunderstorm Heavy Thunderstorms and Rain
10:12 PM 64.4 °F 62.6 °F 94% 29.91 in 0.5 mi NNW 20.7 mph 38.0 mph 0.95 in Fog , Rain , Thunderstorm Heavy Thunderstorms and Rain
10:16 PM 64.4 °F 62.6 °F 94% 29.90 in 0.8 mi North 23.0 mph 31.1 mph 1.13 in Rain , Thunderstorm Heavy Thunderstorms and Rain
10:20 PM 64.4 °F 62.6 °F 94% 29.91 in 1.0 mi North 16.1 mph 31.1 mph 1.18 in Rain , Thunderstorm Heavy Thunderstorms and Rain
10:26 PM 64.4 °F 62.6 °F 94% 29.90 in 3.0 mi North 19.6 mph 26.5 mph 1.19 in Rain , Thunderstorm Thunderstorms and Rain
10:36 PM 64.4 °F 62.6 °F 94% 29.90 in 10.0 mi North 19.6 mph 29.9 mph 1.19 in Rain , Thunderstorm Light Thunderstorms and Rain
10:53 PM 64.0 °F 62.1 °F 93% 29.94 in 4.0 mi North 15.0 mph - 1.30 in Rain , Thunderstorm Heavy Rain
11:06 PM 64.4 °F 62.6 °F 94% 29.92 in 9.0 mi NNE 16.1 mph 24.2 mph 0.02 in Rain , Thunderstorm Light Thunderstorms and Rain
11:53 PM 64.0 °F 62.1 °F 93% 29.82 in 10.0 mi ENE 15.0 mph 25.3 mph 0.06 in   Scattered Clouds